Starlink 31959

operational
NORAD ID: 59925 Int'l Des: 2024-106 Owner: SPXS Country: US Constellation: starlink
LEOCIRCULAR

Über Starlink 31959

Beschreibung wird geladen...

Live-Position

3D-Globus wird geladen...

Nächste Überflüge

Höhenverlauf

Altitude vs Time

uPlot chart will show altitude changes over time

Zweizeiliger Elementsatz

1 59925U 24106D 25303.48800829 -.00000552 00000-0 -10538-4 0 9990
2 59925 43.0022 343.9924 0000663 299.0343 61.0442 15.27570864 80653
Epoch: 30. Okt. 2025 • Age: 33 hours

Aktueller Status

Höhe 492.2 km
Geschwindigkeit 7.62 km/s
Subsatellitenpunkt -34.00°S, 56.51°W
Startdatum 1. Juni 2024
Alter 1.4 years
Typ internet

Technische Details

Klassifizierung Payload
Masse 730.00 kg
Trockenmasse 700.00 kg
Gesamtmasse 730.00 kg
Länge 0.30 m
Durchmesser 4.10 m
Spannweite 29.00 m
Form Box + pan
Hersteller SPXS
Bus-Typ Starlink V2M
Phasenstatus In Orbit
Besitzer/Staat SPXS/US

Große Konstellationen

Loading constellations...